Weather History for Linton Municipal Airport, ND

Change the Weather History Date:

Friday, April 11, 2014

  Actual Average (KBIS) Record (KBIS)
Temperature  
Mean Temperature 44 °F 42 °F  
Max Temperature 62 °F 55 °F 84 °F (1968)
Min Temperature 26 °F 29 °F 7 °F (1957)
Degree Days  
Heating Degree Days 21 23  
Month to date heating degree days 279  
Since 1 July heating degree days 7798  
Cooling Degree Days 0 0  
Month to date cooling degree days 0  
Year to date cooling degree days 0  
Moisture  
Dew Point 30 °F    
Average Humidity 58    
Maximum Humidity 100    
Minimum Humidity 19    
Precipitation  
Precipitation 0.00 in 0.03 in 1.31 in (1912)
Month to date precipitation 0.39  
Year to date precipitation 2.20  
Snow  
Snow 0.00 in 0.10 in 3.70 in (1979)
Month to date snowfall 2.2  
Since 1 July snowfall 48.8  
Snow Depth -    
Sea Level Pressure  
Sea Level Pressure 29.87 in    
Wind  
Wind Speed 6 mph (East)    
Max Wind Speed 20 mph    
Max Gust Speed 26 mph    
Visibility 10 miles    
Events      
T = Trace of Precipitation, MM = Missing Value Source: NWS Daily Summary

Daily Weather History Graph

Daily Weather History Graph

Search for Another Location

Airport:

Trip Planner

Search our weather history database for the weather conditions in past years. The results will help you decide how hot, cold, wet, or windy it might be!

Date:

Astronomy

Apr. 11, 2014 Rise Set
Actual Time 7:01 AM CDT 8:23 PM CDT
Civil Twilight 6:30 AM CDT 8:54 PM CDT
Nautical Twilight 5:53 AM CDT 9:31 PM CDT
Astronomical Twilight 5:13 AM CDT 10:12 PM CDT
Moon 4:54 PM CDT (4/11) 5:09 AM CDT (4/11)
Length of Visible Light 14h 23m
Length of Day
13h 21m
Waxing Gibbous, 87% of the Moon is Illuminated
Apr 11
Waxing Gibbous
Apr 15
Full
Apr 22
Last Quarter
Apr 29
New
May 6
First Quarter

Hourly Weather History & Observations

Time (CDT) Temp. Windchill Dew Point Humidity Pressure Visibility Wind Dir Wind Speed Gust Speed Precip Events Conditions
12:15 AM 41.0 °F 37.1 °F 32.0 °F 70% 29.89 in 10.0 mi East 5.8 mph - N/A   Partly Cloudy
12:35 AM 41.0 °F 36.4 °F 32.0 °F 70% 29.89 in 10.0 mi NE 6.9 mph - N/A   Partly Cloudy
12:55 AM 37.4 °F 34.9 °F 32.0 °F 81% 29.89 in 10.0 mi East 3.5 mph - N/A   Clear
1:15 AM 37.4 °F 32.8 °F 32.0 °F 81% 29.88 in 10.0 mi ENE 5.8 mph - N/A   Clear
1:35 AM 35.6 °F 29.2 °F 32.0 °F 87% 29.88 in 10.0 mi East 8.1 mph - N/A   Clear
1:55 AM 33.8 °F 28.6 °F 32.0 °F 93% 29.89 in 10.0 mi ESE 5.8 mph - N/A   Clear
2:15 AM 35.6 °F 30.7 °F 32.0 °F 87% 29.90 in 10.0 mi East 5.8 mph - N/A   Scattered Clouds
2:35 AM 33.8 °F 30.8 °F 32.0 °F 93% 29.90 in 10.0 mi ESE 3.5 mph - N/A   Partly Cloudy
2:55 AM 32.0 °F 27.5 °F 32.0 °F 100% 29.90 in 10.0 mi ESE 4.6 mph - N/A   Clear
3:15 AM 32.0 °F 26.4 °F 32.0 °F 100% 29.90 in 10.0 mi South 5.8 mph - N/A   Clear
3:35 AM 32.0 °F 26.4 °F 32.0 °F 100% 29.90 in 10.0 mi SSE 5.8 mph - N/A   Mostly Cloudy
3:55 AM 35.6 °F 29.2 °F 35.6 °F 100% 29.89 in 10.0 mi South 8.1 mph - N/A   Mostly Cloudy
4:15 AM 41.0 °F 33.1 °F 35.6 °F 81% 29.88 in 10.0 mi South 15.0 mph - N/A   Scattered Clouds
4:35 AM 39.2 °F 35.9 °F 33.8 °F 81% 29.89 in 10.0 mi South 4.6 mph - N/A   Partly Cloudy
4:55 AM 37.4 °F 34.9 °F 32.0 °F 81% 29.90 in 10.0 mi SSE 3.5 mph - N/A   Clear
5:15 AM 37.4 °F 34.9 °F 32.0 °F 81% 29.90 in 10.0 mi SSE 3.5 mph - N/A   Clear
5:35 AM 35.6 °F - 32.0 °F 87% 29.91 in 10.0 mi Calm Calm - N/A   Clear
5:55 AM 32.0 °F - 32.0 °F 100% 29.91 in 10.0 mi Calm Calm - N/A   Clear
6:15 AM 30.2 °F 26.7 °F 30.2 °F 100% 29.91 in 10.0 mi East 3.5 mph - N/A   Clear
6:35 AM 30.2 °F 26.7 °F 30.2 °F 100% 29.92 in 10.0 mi East 3.5 mph - N/A   Clear
6:55 AM 30.2 °F 26.7 °F 30.2 °F 100% 29.92 in 10.0 mi SE 3.5 mph - N/A   Clear
7:15 AM 26.6 °F 22.6 °F 26.6 °F 100% 29.92 in 10.0 mi East 3.5 mph - N/A   Clear
7:55 AM 32.0 °F 27.5 °F 32.0 °F 100% 29.92 in 10.0 mi ESE 4.6 mph - N/A   Clear
8:15 AM 35.6 °F 32.8 °F 35.6 °F 100% 29.92 in 10.0 mi SE 3.5 mph - N/A   Clear
8:35 AM 37.4 °F 34.9 °F 37.4 °F 100% 29.91 in 10.0 mi SE 3.5 mph - N/A   Clear
8:55 AM 39.2 °F 35.9 °F 35.6 °F 87% 29.92 in 10.0 mi East 4.6 mph - N/A   Clear
9:15 AM 39.2 °F 37.0 °F 35.6 °F 87% 29.92 in 10.0 mi East 3.5 mph - N/A   Clear
9:35 AM 41.0 °F - 35.6 °F 81% 29.92 in 10.0 mi Calm Calm - N/A   Clear
9:55 AM 46.4 °F - 35.6 °F 66% 29.93 in 10.0 mi Calm Calm - N/A   Clear
10:35 AM 53.6 °F - 35.6 °F 51% 29.93 in 10.0 mi West 5.8 mph - N/A   Clear
10:55 AM 53.6 °F - 35.6 °F 51% 29.93 in 10.0 mi WNW 6.9 mph - N/A   Clear
11:15 AM 55.4 °F - 33.8 °F 44% 29.93 in 10.0 mi WNW 5.8 mph - N/A   Clear
11:35 AM 57.2 °F - 30.2 °F 36% 29.93 in 10.0 mi WNW 9.2 mph - N/A   Clear
11:55 AM 59.0 °F - 28.4 °F 31% 29.93 in 10.0 mi NW 8.1 mph 17.3 mph N/A   Clear
12:15 PM 59.0 °F - 26.6 °F 29% 29.92 in 10.0 mi WNW 12.7 mph 17.3 mph N/A   Clear
12:35 PM 60.8 °F - 24.8 °F 25% 29.92 in 10.0 mi West 10.4 mph 18.4 mph N/A   Clear
12:55 PM 60.8 °F - 24.8 °F 25% 29.91 in 10.0 mi WSW 10.4 mph 17.3 mph N/A   Clear
1:15 PM 60.8 °F - 23.0 °F 23% 29.90 in 10.0 mi WNW 10.4 mph - N/A   Clear
1:35 PM 60.8 °F - 23.0 °F 23% 29.90 in 10.0 mi West 9.2 mph - N/A   Clear
1:55 PM 62.6 °F - 19.4 °F 19% 29.90 in 10.0 mi WNW 8.1 mph 18.4 mph N/A   Clear
2:15 PM 60.8 °F - 21.2 °F 22% 29.89 in 10.0 mi West 3.5 mph - N/A   Partly Cloudy
2:35 PM 62.6 °F - 23.0 °F 22% 29.88 in 10.0 mi NNW 6.9 mph - N/A   Clear
2:55 PM 62.6 °F - 23.0 °F 22% 29.87 in 10.0 mi NW 6.9 mph - N/A   Partly Cloudy
3:15 PM 62.6 °F - 23.0 °F 22% 29.87 in 10.0 mi West 4.6 mph - N/A   Clear
3:35 PM 62.6 °F - 23.0 °F 22% 29.86 in 10.0 mi SSE 6.9 mph - N/A   Clear
3:55 PM 62.6 °F - 23.0 °F 22% 29.84 in 10.0 mi SSW 8.1 mph - N/A   Clear
4:15 PM 60.8 °F - 23.0 °F 23% 29.83 in 10.0 mi SW 6.9 mph - N/A   Clear
4:35 PM 60.8 °F - 19.4 °F 20% 29.83 in 10.0 mi South 3.5 mph - N/A   Partly Cloudy
4:55 PM 59.0 °F - 21.2 °F 23% 29.83 in 10.0 mi SSW 4.6 mph - N/A   Clear
5:15 PM 59.0 °F - 23.0 °F 25% 29.82 in 10.0 mi Calm Calm - N/A   Clear
5:35 PM 59.0 °F - 24.8 °F 27% 29.81 in 10.0 mi NNW 6.9 mph - N/A   Partly Cloudy
5:55 PM 59.0 °F - 26.6 °F 29% 29.81 in 10.0 mi North 8.1 mph - N/A   Partly Cloudy
6:15 PM 59.0 °F - 26.6 °F 29% 29.81 in 10.0 mi North 6.9 mph - N/A   Clear
6:35 PM 59.0 °F - 26.6 °F 29% 29.81 in 10.0 mi ENE 9.2 mph - N/A   Clear
6:55 PM 57.2 °F - 26.6 °F 31% 29.80 in 10.0 mi ENE 13.8 mph - N/A   Clear
7:15 PM 57.2 °F - 28.4 °F 33% 29.79 in 10.0 mi ENE 9.2 mph - N/A   Clear
7:35 PM 55.4 °F - 28.4 °F 36% 29.77 in 10.0 mi ENE 12.7 mph 18.4 mph N/A   Clear
7:55 PM 55.4 °F - 28.4 °F 36% 29.77 in 10.0 mi ENE 16.1 mph 20.7 mph N/A   Clear
8:15 PM 53.6 °F - 28.4 °F 38% 29.77 in 10.0 mi ENE 15.0 mph 20.7 mph N/A   Scattered Clouds
8:35 PM 53.6 °F - 28.4 °F 38% 29.77 in 10.0 mi ENE 15.0 mph 18.4 mph N/A   Scattered Clouds
8:55 PM 51.8 °F - 28.4 °F 41% 29.77 in 10.0 mi NE 12.7 mph 20.7 mph N/A   Scattered Clouds
9:15 PM 50.0 °F - 28.4 °F 43% 29.79 in 10.0 mi NE 15.0 mph 23.0 mph N/A   Mostly Cloudy
9:35 PM 50.0 °F - 32.0 °F 50% 29.81 in 10.0 mi ENE 19.6 mph 26.5 mph N/A   Mostly Cloudy
9:55 PM 50.0 °F - 32.0 °F 50% 29.82 in 10.0 mi East 5.8 mph - N/A   Mostly Cloudy
10:15 PM 50.0 °F - 32.0 °F 50% 29.83 in 10.0 mi ENE 9.2 mph - N/A   Mostly Cloudy
10:35 PM 48.2 °F - 32.0 °F 54% 29.83 in 10.0 mi ENE 4.6 mph - N/A   Mostly Cloudy
10:55 PM 48.2 °F - 33.8 °F 58% 29.82 in 10.0 mi East 11.5 mph - N/A   Overcast
11:15 PM 46.4 °F 41.9 °F 37.4 °F 71% 29.83 in 7.0 mi East 9.2 mph 20.7 mph N/A   Overcast
11:35 PM 44.6 °F 37.8 °F 37.4 °F 76% 29.80 in 10.0 mi East 15.0 mph - N/A   Mostly Cloudy
11:55 PM 42.8 °F 36.2 °F 37.4 °F 81% 29.80 in 10.0 mi East 12.7 mph - N/A   Scattered Clouds